Tupelo, MS (38801)

11:05 AM CDT on October 01, 2014 (GMT -0500)
Lee Acres | Change Station
CLOSE
Current Station
Personal Weather Station
Location: Tupelo, MS
Elevation: 340 ft
Nearby Weather Stations

Elev 340 ft 34.24 °N, 88.72 °W | Updated 1 minute ago

Clear
Clear
81.2 °F
Feels Like 84 °F
N
2.0
Wind Variable Wind from South
Gusts 7.0 mph

Today
High -- | Low -- °F
--% Chance of Precip.
Yesterday
High -- | Low -- °F
Precip. -- in
6:49 AM 6:39 PM
Waxing Crescent, 48% visible
Pressure 29.97 in
Visibility 10.0 miles
Clouds Clear
Heat Index 84 °F
Dew Point 67 °F
Humidity 63%
Rainfall 0.00 in
Snow Depth Not available.
UV 6 out of 12
Pollen 5.40 out of 12
Air Quality Not available.
Flu Activity Not available.
METAR KTUP 011553Z 19006KT 10SM CLR 28/17 A2997 RMK AO2 SLP147 T02780167 $

More Conditions Fewer Conditions

Pressure 29.97 in
Visibility 10.0 miles
Clouds Clear
Heat Index 84 °F
Dew Point 67 °F
Humidity 63%
Rainfall 0.00 in
Snow Depth Not available.
UV 6 out of 12
Pollen 5.40 out of 12
Air Quality Not available.
Flu Activity Not available.
METAR KTUP 011553Z 19006KT 10SM CLR 28/17 A2997 RMK AO2 SLP147 T02780167 $

More Conditions Fewer Conditions

10-Day Weather Forecast

Almanac

Astronomy

Oct. 01, 2014 Rise Set
Actual Time 6:49 AM CDT 6:39 PM CDT
Civil Twilight 6:24 AM CDT 7:04 PM CDT
Nautical Twilight 5:55 AM CDT 7:33 PM CDT
Astronomical Twilight 5:26 AM CDT 8:02 PM CDT
Moon 1:39 PM CDT No Moon Set
Length of Visible Light 12h 39m
Length of Day
11h 49m
Tomorrow will be 2m 6s shorter.
Waxing Crescent, 48% of the Moon is Illuminated
Today
Waxing Crescent
Oct 1
First Quarter
Oct 8
Full
Oct 15
Last Quarter
Oct 23
New

Today's Extremes

State Highs State Lows

Community

WunderPhotos

Upload Photos

1,757,968 photos uploaded!

WunderBlogs® & News

Nearby

Snow Depth

Station Depth Elevation
No new snow has been reported.

Earthquake Activity

City Distance Mag. Time & Date
No recent earthquake activity has been reported nearby.
Minimum magnitude displayed is 2.5.

Coastal Water Temperatures

Place Temperature
No Stations Reporting

Nearby Weather Stations